Alexandria, MN

12:40 AM CST on November 23, 2017 (GMT -0600)
Chandler

Weather History for KAXN - November, 2012

Change the Weather History Date:

Monday, November 26, 2012

  Actual Average Record
Temperature  
Mean Temperature 11 °F -  
Max Temperature 17 °F 29 °F 52 °F (1960)
Min Temperature 5 °F 14 °F -15 °F (1996)
Degree Days  
Heating Degree Days 54    
Moisture  
Dew Point 4 °F    
Average Humidity 73    
Maximum Humidity 84    
Minimum Humidity 62    
Precipitation  
Precipitation 0.00 in - - ()
Sea Level Pressure  
Sea Level Pressure 30.41 in    
Wind  
Wind Speed 9 mph (WNW)    
Max Wind Speed 14 mph    
Max Gust Speed -    
Visibility 10 miles    
Events      
Averages and records for this station are not official NWS values.
T = Trace of Precipitation, MM = Missing Value Source: NWS Daily Summary

Daily Weather History Graph

Daily Weather History Graph

Search for Another Location

Airport or City:

Trip Planner

Search our weather history database for the weather conditions in past years. The results will help you decide how hot, cold, wet, or windy it might be!

Date:

Astronomy

Nov. 26, 2012 Rise Set
Actual Time 7:37 AM CST 4:40 PM CST
Civil Twilight 7:03 AM CST 5:14 PM CST
Nautical Twilight 6:26 AM CST 5:51 PM CST
Astronomical Twilight 5:50 AM CST 6:26 PM CST
Moon 3:36 PM CST (11/26) 5:44 AM CST (11/26)
Length of Visible Light 10h 10m
Length of Day
9h 03m
Waxing Gibbous, 97% of the Moon is Illuminated
Nov 26
Waxing Gibbous
Nov 28
Full
Dec 6
Last Quarter
Dec 13
New
Dec 19
First Quarter

Hourly Weather History & Observations

Time (CST) Temp. Windchill Dew Point Humidity Pressure Visibility Wind Dir Wind Speed Gust Speed Precip Events Conditions
12:53 AM 9.0 °F -3.2 °F 3.0 °F 77% 30.31 in 10.0 mi NNW 8.1 mph - N/A   Clear
1:53 AM 8.1 °F -4.3 °F 3.0 °F 80% 30.32 in 10.0 mi NNW 8.1 mph - N/A   Clear
2:53 AM 7.0 °F -7.5 °F 1.9 °F 80% 30.35 in 10.0 mi NNW 10.4 mph - N/A   Clear
3:53 AM 7.0 °F -5.7 °F 1.9 °F 80% 30.36 in 10.0 mi NNW 8.1 mph - N/A   Partly Cloudy
4:53 AM 6.1 °F -7.8 °F 1.0 °F 80% 30.40 in 10.0 mi NNW 9.2 mph - N/A   Clear
5:53 AM 5.0 °F -9.1 °F 1.0 °F 84% 30.41 in 10.0 mi NW 9.2 mph - N/A   Clear
6:53 AM 5.0 °F -10.0 °F 1.0 °F 84% 30.43 in 10.0 mi NNW 10.4 mph - N/A   Clear
7:53 AM 5.0 °F -9.1 °F 1.0 °F 84% 30.45 in 10.0 mi NW 9.2 mph - N/A   Clear
8:53 AM 7.0 °F -4.5 °F 1.9 °F 80% 30.47 in 10.0 mi NW 6.9 mph - N/A   Clear
9:53 AM 9.0 °F -5.1 °F 1.9 °F 73% 30.49 in 10.0 mi NNW 10.4 mph - N/A   Clear
10:53 AM 12.0 °F -2.0 °F 3.9 °F 70% 30.50 in 10.0 mi NW 11.5 mph - N/A   Clear
11:53 AM 12.9 °F -0.9 °F 5.0 °F 71% 30.49 in 10.0 mi West 11.5 mph - N/A   Clear
12:53 PM 15.1 °F 4.2 °F 6.1 °F 68% 30.47 in 10.0 mi NW 8.1 mph - N/A   Clear
1:53 PM 16.0 °F 4.4 °F 6.1 °F 65% 30.46 in 10.0 mi WNW 9.2 mph - N/A   Clear
2:53 PM 17.1 °F 5.0 °F 7.0 °F 65% 30.45 in 10.0 mi West 10.4 mph - N/A   Clear
3:53 PM 17.1 °F 7.6 °F 6.1 °F 62% 30.44 in 10.0 mi WSW 6.9 mph - N/A   Clear
4:53 PM 14.0 °F 5.1 °F 6.1 °F 71% 30.43 in 10.0 mi SW 5.8 mph - N/A   Clear
5:53 PM 12.9 °F 1.6 °F 5.0 °F 71% 30.42 in 10.0 mi SSW 8.1 mph - N/A   Clear
6:53 PM 14.0 °F 2.9 °F 5.0 °F 67% 30.40 in 10.0 mi SSW 8.1 mph - N/A   Scattered Clouds
7:53 PM 16.0 °F 2.3 °F 6.1 °F 65% 30.38 in 10.0 mi SW 12.7 mph - N/A   Clear
8:53 PM 15.1 °F 0.5 °F 6.1 °F 68% 30.36 in 10.0 mi SW 13.8 mph - N/A   Clear
9:53 PM 16.0 °F 2.9 °F 7.0 °F 68% 30.35 in 10.0 mi SW 11.5 mph - N/A   Scattered Clouds
10:53 PM 15.1 °F 3.3 °F 7.0 °F 70% 30.34 in 10.0 mi SW 9.2 mph - N/A   Scattered Clouds
11:53 PM 15.1 °F 1.8 °F 7.0 °F 70% 30.33 in 10.0 mi SW 11.5 mph - N/A   Clear